Weather History for Mt. Clemens, MI

Change the Weather History Date:

Wednesday, April 9, 2014

  Actual Average Record
Temperature  
Mean Temperature 44 °F -  
Max Temperature 54 °F 50 °F 73 °F (1955)
Min Temperature 35 °F 32 °F 19 °F (1976)
Degree Days  
Heating Degree Days 22    
Moisture  
Dew Point 31 °F    
Average Humidity 63    
Maximum Humidity 95    
Minimum Humidity 39    
Precipitation  
Precipitation 0.00 in - - ()
Sea Level Pressure  
Sea Level Pressure 29.94 in    
Wind  
Wind Speed 6 mph (WSW)    
Max Wind Speed 13 mph    
Max Gust Speed 17 mph    
Visibility 11 miles    
Events      
Averages and records for this station are not official NWS values.
T = Trace of Precipitation, MM = Missing Value Source: NWS Daily Summary

Daily Weather History Graph

Daily Weather History Graph

Search for Another Location

Airport:

Trip Planner

Search our weather history database for the weather conditions in past years. The results will help you decide how hot, cold, wet, or windy it might be!

Date:

Astronomy

Apr. 09, 2014 Rise Set
Actual Time 6:59 AM EDT 8:06 PM EDT
Civil Twilight 6:31 AM EDT 8:35 PM EDT
Nautical Twilight 5:56 AM EDT 9:10 PM EDT
Astronomical Twilight 5:20 AM EDT 9:46 PM EDT
Moon 2:47 PM EDT (4/9) 3:55 AM EDT (4/9)
Length of Visible Light 14h 04m
Length of Day
13h 06m
Waxing Gibbous, 71% of the Moon is Illuminated
Apr 9
Waxing Gibbous
Apr 15
Full
Apr 22
Last Quarter
Apr 29
New
May 6
First Quarter

Hourly Weather History & Observations

Time (EDT) Temp. Windchill Dew Point Humidity Pressure Visibility Wind Dir Wind Speed Gust Speed Precip Events Conditions
12:58 AM 37.2 °F - 34.2 °F 89% 29.82 in 10.0 mi Calm Calm - N/A   Partly Cloudy
1:58 AM 37.8 °F - 35.2 °F 91% 29.83 in 10.0 mi Calm Calm - N/A   Overcast
2:58 AM 37.9 °F - 36.5 °F 95% 29.84 in 10.0 mi Calm Calm - N/A   Overcast
3:58 AM 41.0 °F 35.8 °F 33.8 °F 76% 29.85 in 10.0 mi NNW 8.1 mph - N/A   Mostly Cloudy
4:58 AM 39.2 °F 33.6 °F 31.3 °F 73% 29.87 in 10.0 mi NW 8.1 mph - N/A   Clear
5:58 AM 37.0 °F 29.8 °F 28.2 °F 70% 29.89 in 10.0 mi NW 10.4 mph - N/A   Clear
6:58 AM 35.8 °F 28.8 °F 25.3 °F 66% 29.91 in 10.0 mi NW 9.2 mph - N/A   Clear
7:56 AM 36.5 °F 29.7 °F 25.3 °F 64% 29.95 in 12.0 mi NW 9.2 mph - N/A   Clear
8:55 AM 39.2 °F 32.5 °F 27.3 °F 62% 29.97 in 12.0 mi NW 10.4 mph - N/A   Clear
9:55 AM 42.3 °F 36.8 °F 29.5 °F 61% 29.99 in 12.0 mi NW 9.2 mph - N/A   Clear
10:55 AM 45.7 °F 42.0 °F 30.0 °F 54% 30.01 in 12.0 mi NNW 6.9 mph - N/A   Clear
11:55 AM 48.6 °F - 29.5 °F 48% 30.02 in 12.0 mi Variable 4.6 mph - N/A   Clear
12:55 PM 49.8 °F - 27.3 °F 42% 30.02 in 12.0 mi North 8.1 mph - N/A   Partly Cloudy
1:55 PM 51.8 °F - 27.3 °F 39% 30.01 in 12.0 mi West 10.4 mph - N/A   Partly Cloudy
2:55 PM 52.7 °F - 29.8 °F 42% 30.00 in 12.0 mi SSE 11.5 mph 17.3 mph N/A   Partly Cloudy
3:55 PM 50.9 °F - 27.9 °F 41% 29.99 in 12.0 mi SSE 10.4 mph - N/A   Mostly Cloudy
4:55 PM 51.6 °F - 28.6 °F 41% 29.98 in 12.0 mi SSE 11.5 mph - N/A   Mostly Cloudy
5:55 PM 51.8 °F - 28.8 °F 41% 29.96 in 12.0 mi South 11.5 mph - N/A   Partly Cloudy
6:55 PM 48.7 °F - 31.3 °F 51% 29.96 in 12.0 mi South 11.5 mph - N/A   Partly Cloudy
7:55 PM 45.0 °F 38.9 °F 32.5 °F 62% 29.96 in 12.0 mi SSE 12.7 mph - N/A   Partly Cloudy
8:58 PM 42.1 °F 35.2 °F 33.6 °F 72% 29.96 in 10.0 mi South 12.7 mph - N/A   Clear
9:58 PM 39.6 °F 32.5 °F 33.6 °F 79% 29.96 in 10.0 mi South 11.5 mph - N/A   Clear
10:58 PM 39.9 °F 32.5 °F 33.1 °F 77% 29.92 in 10.0 mi South 12.7 mph - N/A   Clear
11:58 PM 38.5 °F 32.1 °F 33.3 °F 81% 29.93 in 10.0 mi South 9.2 mph - N/A   Clear